Regional Weather Roundup
Issued by NWS Newport/Morehead, NC

Current Version | Previous Version | Graphics & Text | Print | Product List | Glossary Off
Versions: 1 2 3 4 5 6 7 8 9 10 11 12 13 14 15 16 17 18 19 20 21 22 23 24 25 26 27 28 29 30 31 32 33 34 35 36 37 38 39 40 41 42 43 44 45 46 47 48 49 50

000
ASUS42 KMHX 270913
RWRMHX
WEATHER ROUNDUP FOR EASTERN NORTH CAROLINA
NATIONAL WEATHER SERVICE NEWPORT/MOREHEAD CITY NC
500 AM EDT TUE JUN 27 2017

NOTE: "FAIR" INDICATES FEW OR NO CLOUDS BELOW 12,000 FEET
WITH NO SIGNIFICANT WEATHER AND/OR OBSTRUCTIONS TO VISIBILITY

NCZ015>017-031-032-045>047-102-103-271000-
NORTH COAST

CITY           SKY/WX    TMP DP  RH WIND       PRES   REMARKS
EDENTON        CLEAR     71  66  85 CALM      30.01S
ELIZABETH CITY MOCLDY    69  66  90 SW3       30.01R
KITTY HAWK     SUNNY     68  64  86 CALM      29.99S
MANTEO         PTCLDY    66  64  94 CALM      30.01S

$$

NCZ045>047-081-094-103-104-271000-
CENTRAL COAST

CITY           SKY/WX    TMP DP  RH WIND       PRES   REMARKS
FRISCO         PTCLDY    66  63  90 CALM      30.00F

$$

NCZ095-097-098-100-101-271000-
SOUTHERN COAST

CITY           SKY/WX    TMP DP  RH WIND       PRES   REMARKS
BEAUFORT       PTCLDY    68  68 100 CALM      30.01R
CEDAR ISLAND   NOT AVBL
JACKSONVILLE   PTCLDY    66  66 100 W3        30.01S
PINEY ISLAND   SUNNY    N/A N/A N/A S5        30.01R
WILMINGTON     PTCLDY    66  65  96 CALM      30.02R


$$

NCZ011>013-027>030-043-044-078>080-089-090>093-098-271000-
COASTAL PLAIN

CITY           SKY/WX    TMP DP  RH WIND       PRES   REMARKS
AHOSKIE          N/A     62  61  99 CALM      30.01S
CLINTON        CLEAR     65  64  99 CALM      30.02S
ELIZABETHTOWN  NOT AVBL
GOLDSBORO      CLOUDY    66  66 100 CALM      29.99F
GREENVILLE     CLOUDY    68  64  88 CALM      30.03S
HAVELOCK       NOT AVBL
KENANSVILLE    CLEAR     63  61  94 CALM      30.02S
KINSTON        CLEAR     64  63  95 CALM      30.02S
NEW BERN       CLEAR     65  64  97 CALM      30.02S
RICHLANDS      CLEAR     61  60  97 CALM      30.02S
ROCKY MOUNT    CLOUDY    67  65  93 CALM      30.01S
WASHINGTON       N/A    N/A N/A N/A CALM      30.01S
WHITEVILLE     PTCLDY    63  62  95 CALM      30.02S

$$

AMZ130-135-150-152-154-156-158-170-250-252-270-ANZ085-086-088-633-658-670-271000-
MARINE OBSERVATIONS

STATION/POSITION TIME  TEMP    WIND        PRES    WAVE   SWELL
                       AIR SEA DIR/SP/G            HT/PER HT/PER
                 (UTC) (F)     (DEG/KT/KT) (MB)    (FT/S) (FT/S)
CHESAPEAKE LIGHT NOT AVBL
64 E VA BEACH    0850   73 73  150/  4/  6 1016.3    2/ 8   2/ 8
DUCK             0842   72 71  190/  3/  4 1015.5
2 E DUCK         NOT AVBL
OREGON INLET     0848          130/  3/  4   N/A
13E OREGON INLT  0848      72                N/A     2/ 8   2/ 8
HATTERAS CG      0842   72 77     CALM     1015.8
DIAMOND BUOY     0850   77 81  330/  6/  8 1015.8    1/ 6   2/ 6
CAPE LOOKOUT     0900   76      20/  3/  3 1015.6
BEAUFORT LAB     0842   73 78  350/  1/  2 1015.5
30 SE NEW RVR IN 0808   77 81   20/  4/  6 1016.3
30 SE NEW RVR IN 0843      80                N/A     2/ 8
27 SE WRIGHTSVLE 0808   77 80  360/  4/  8 1015.0
5 SE WRIGHTSVLE  0808   77 79  340/  2/  4 1016.1
225 S CAPE HAT   0850   78 80  260/ 16/ 19 1015.6    3/ 5   2/ 9
41 SE CHARLESTON 0850   79 81   30/  4/  6 1016.0    2/ 7   2/ 7

$$



USA.gov is the U.S. government's official web portal to all federal, state and local government web resources and services.